20050429,000025,1241858,32.793256,-123.944016,15.198,32.943,0.150,0.276
20050429,000055,1241888,32.793108,-123.944075,15.193,32.943,0.144,0.270
20050429,000125,1241918,32.792978,-123.944135,15.196,32.943,0.150,0.283
20050429,000155,1241948,32.792795,-123.944268,15.190,32.946,0.144,0.256
20050429,000225,1241978,32.792613,-123.944418,15.188,32.948,0.150,0.275
20050429,000255,1242008,32.792475,-123.944556,15.188,32.947,0.144,0.270
20050429,000325,1242038,32.792300,-123.944708,15.189,32.942,0.150,0.283
20050429,000355,1242068,32.792140,-123.944853,15.188,32.942,0.162,0.299
20050429,000425,1242098,32.791965,-123.944995,15.188,32.943,0.162,0.302
20050429,000454,1242127,32.791776,-123.945138,15.181,32.947,0.150,0.281
20050429,000525,1242158,32.791613,-123.945318,15.181,32.946,0.156,0.261
20050429,000555,1242188,32.791448,-123.945501,15.171,32.953,0.150,0.275
20050429,000625,1242218,32.791275,-123.945683,15.164,32.958,0.150,0.279
20050429,000654,1242247,32.791108,-123.945865,15.164,32.953,0.150,0.279
20050429,000725,1242278,32.790948,-123.946030,15.159,32.953,0.150,0.280
20050429,000755,1242308,32.790791,-123.946201,15.159,32.953,0.156,0.290
20050429,000825,1242338,32.790596,-123.946350,15.159,32.949,0.162,0.300
20050429,000855,1242368,32.790455,-123.946495,15.152,32.951,0.156,0.290
20050429,000926,1242399,32.790280,-123.946628,15.110,32.984,0.150,0.281
20050429,000955,1242428,32.790135,-123.946796,15.063,33.019,0.156,0.271
20050429,001025,1242458,32.790016,-123.946966,15.085,32.998,0.156,0.280
20050429,001055,1242488,32.789978,-123.947095,15.025,33.034,0.150,0.282
20050429,001125,1242518,32.789973,-123.947150,15.013,33.031,0.150,0.281
20050429,001155,1242548,32.790101,-123.947273,15.013,33.017,0.156,0.292
20050429,001225,1242578,32.790533,-123.947493,14.995,33.020,0.150,0.275
20050429,001255,1242608,32.791350,-123.947973,14.991,33.012,0.156,0.292
20050429,001325,1242638,32.792393,-123.948598,14.990,32.998,0.150,0.278
20050429,001355,1242668,32.793571,-123.949305,14.986,32.990,0.156,0.283
20050429,001425,1242698,32.794741,-123.950073,14.977,32.988,0.156,0.246
20050429,001455,1242728,32.795965,-123.950828,14.978,32.980,0.156,0.260
20050429,001525,1242758,32.797168,-123.951595,14.979,32.970,0.156,0.278
20050429,001555,1242788,32.798365,-123.952346,14.978,32.963,0.156,0.290
20050429,001626,1242819,32.799508,-123.953115,14.982,32.955,0.156,0.289
20050429,001655,1242848,32.800655,-123.953818,14.995,32.940,0.150,0.264
20050429,001725,1242878,32.801840,-123.954555,15.010,32.923,0.156,0.287
20050429,001755,1242908,32.803000,-123.955328,15.031,32.905,0.156,0.286
20050429,001825,1242938,32.804181,-123.956096,15.044,32.896,0.162,0.292
20050429,001855,1242968,32.805361,-123.956840,15.052,32.895,0.156,0.233
20050429,001925,1242998,32.806536,-123.957556,15.061,32.894,0.150,0.271
20050429,001955,1243028,32.807625,-123.958271,15.069,32.896,0.156,0.286
20050429,002025,1243058,32.808775,-123.959010,15.077,32.896,0.150,0.269
20050429,002056,1243089,32.809938,-123.959761,15.082,32.900,0.156,0.281
20050429,002125,1243118,32.811121,-123.960503,15.090,32.900,0.174,0.311
20050429,002155,1243148,32.812285,-123.961251,15.095,32.903,0.162,0.289
20050429,002225,1243178,32.813430,-123.962000,15.098,32.904,0.162,0.268
20050429,002255,1243208,32.814620,-123.962748,15.100,32.911,0.156,0.278
20050429,002325,1243238,32.815786,-123.963451,15.104,32.913,0.156,0.285
20050429,002355,1243268,32.816948,-123.964150,15.107,32.914,0.156,0.288
20050429,002426,1243299,32.818121,-123.964926,15.120,32.908,0.156,0.287
20050429,002455,1243328,32.819271,-123.965683,15.138,32.900,0.162,0.266
20050429,002526,1243359,32.820446,-123.966386,15.179,32.870,0.150,0.244
20050429,002555,1243388,32.821601,-123.967086,15.195,32.866,0.150,0.269
20050429,002626,1243419,32.822723,-123.967821,15.224,32.853,0.156,0.263
20050429,002655,1243448,32.823871,-123.968550,15.243,32.851,0.150,0.276
20050429,002725,1243478,32.825041,-123.969271,15.249,32.862,0.156,0.284
20050429,002756,1243509,32.826215,-123.970028,15.256,32.870,0.156,0.284
20050429,002825,1243538,32.827386,-123.970776,15.255,32.885,0.156,0.283
20050429,002855,1243568,32.828581,-123.971523,15.252,32.901,0.156,0.283
20050429,002925,1243598,32.829746,-123.972245,15.250,32.909,0.162,0.291
20050429,002955,1243628,32.830895,-123.972956,15.251,32.916,0.162,0.294
20050429,003025,1243658,32.832083,-123.973691,15.250,32.921,0.156,0.284
20050429,003056,1243689,32.833250,-123.974430,15.252,32.925,0.150,0.256
20050429,003125,1243718,32.834391,-123.975151,15.248,32.933,0.156,0.248
20050429,003155,1243748,32.835568,-123.975871,15.247,32.932,0.150,0.274
20050429,003225,1243778,32.836710,-123.976563,15.250,32.932,0.156,0.272
20050429,003255,1243808,32.837880,-123.977295,15.245,32.937,0.156,0.274
20050429,003326,1243839,32.839116,-123.978055,15.248,32.936,0.162,0.257
20050429,003355,1243868,32.840211,-123.978783,15.247,32.937,0.156,0.266
20050429,003425,1243898,32.841368,-123.979526,15.247,32.938,0.156,0.268
20050429,003456,1243929,32.842530,-123.980250,15.238,32.944,0.162,0.282
20050429,003525,1243958,32.843690,-123.981011,15.235,32.947,0.156,0.270
20050429,003555,1243988,32.844868,-123.981743,15.227,32.951,0.156,0.270
20050429,003625,1244018,32.846035,-123.982461,15.224,32.957,0.156,0.269
20050429,003656,1244049,32.847161,-123.983183,15.220,32.957,0.156,0.270
20050429,003725,1244078,32.848260,-123.983845,15.218,32.952,0.162,0.278
20050429,003755,1244108,32.849371,-123.984523,15.215,32.956,0.156,0.269
20050429,003825,1244138,32.850505,-123.985241,15.208,32.956,0.156,0.268
20050429,003855,1244168,32.851651,-123.985956,15.203,32.959,0.162,0.270
20050429,003925,1244198,32.852786,-123.986671,15.203,32.955,0.150,0.257
20050429,003955,1244228,32.853931,-123.987408,15.202,32.952,0.156,0.269
20050429,004025,1244258,32.855081,-123.988131,15.199,32.953,0.162,0.275
20050429,004055,1244288,32.856221,-123.988828,15.199,32.952,0.162,0.274
20050429,004125,1244318,32.857378,-123.989561,15.196,32.951,0.156,0.265
20050429,004155,1244348,32.858536,-123.990315,15.195,32.955,0.162,0.276
20050429,004225,1244378,32.859700,-123.991048,15.193,32.951,0.162,0.277
20050429,004255,1244408,32.860855,-123.991785,15.199,32.943,0.162,0.275
20050429,004325,1244438,32.862005,-123.992495,15.195,32.943,0.162,0.274
20050429,004355,1244468,32.863116,-123.993208,15.195,32.943,0.156,0.265
20050429,004425,1244498,32.864290,-123.993933,15.195,32.944,0.162,0.276
20050429,004455,1244528,32.865421,-123.994678,15.195,32.943,0.162,0.277
20050429,004525,1244558,32.866566,-123.995430,15.193,32.942,0.156,0.260
20050429,004556,1244589,32.867690,-123.996178,15.195,32.940,0.156,0.226
20050429,004625,1244618,32.868813,-123.996885,15.198,32.937,0.156,0.263
20050429,004655,1244648,32.869943,-123.997638,15.203,32.938,0.162,0.246
20050429,004725,1244678,32.871106,-123.998363,15.207,32.933,0.162,0.243
20050429,004755,1244708,32.872253,-123.999125,15.208,32.929,0.150,0.237
20050429,004825,1244738,32.873386,-123.999870,15.212,32.928,0.162,0.223
20050429,004855,1244768,32.874498,-124.000572,15.213,32.931,0.156,0.213
20050429,004925,1244798,32.875621,-124.001303,15.215,32.930,0.156,0.212
20050429,004955,1244828,32.876770,-124.002037,15.217,32.928,0.162,0.219
20050429,005025,1244858,32.877891,-124.002787,15.215,32.933,0.162,0.225
20050429,005055,1244888,32.879060,-124.003520,15.214,32.936,0.162,0.222
20050429,005125,1244918,32.880195,-124.004262,15.211,32.939,0.162,0.219
20050429,005155,1244948,32.881326,-124.004960,15.208,32.941,0.162,0.246
20050429,005225,1244978,32.882408,-124.005713,15.208,32.946,0.168,0.234
20050429,005255,1245008,32.883548,-124.006445,15.203,32.947,0.168,0.228
20050429,005325,1245038,32.884705,-124.007173,15.199,32.953,0.168,0.225
20050429,005355,1245068,32.885818,-124.007917,15.198,32.950,0.168,0.227
20050429,005425,1245098,32.886945,-124.008668,15.199,32.947,0.168,0.232
20050429,005455,1245128,32.888075,-124.009388,15.195,32.947,0.168,0.236
20050429,005525,1245158,32.889193,-124.010117,15.194,32.948,0.162,0.233
20050429,005555,1245188,32.890306,-124.010842,15.193,32.947,0.168,0.234
20050429,005625,1245218,32.891395,-124.011573,15.187,32.950,0.162,0.238
20050429,005655,1245248,32.892518,-124.012305,15.185,32.955,0.162,0.229
20050429,005725,1245278,32.893638,-124.013035,15.178,32.956,0.162,0.233
20050429,005755,1245308,32.894735,-124.013745,15.173,32.961,0.162,0.245
20050429,005826,1245339,32.895840,-124.014490,15.171,32.956,0.168,0.270
20050429,005855,1245368,32.896930,-124.015180,15.174,32.950,0.162,0.282
20050429,005925,1245398,32.898040,-124.015925,15.169,32.950,0.162,0.288
20050429,005955,1245428,32.899151,-124.016653,15.163,32.958,0.162,0.264
20050429,010025,1245458,32.900275,-124.017392,15.159,32.956,0.168,0.292
20050429,010056,1245489,32.901385,-124.018120,15.153,32.959,0.156,0.271
20050429,010125,1245518,32.902513,-124.018840,15.153,32.960,0.156,0.269
20050429,010155,1245548,32.903610,-124.019592,15.153,32.951,0.156,0.258
20050429,010225,1245578,32.904730,-124.020325,15.151,32.952,0.156,0.264
20050429,010255,1245608,32.905853,-124.021093,15.148,32.955,0.156,0.264
20050429,010325,1245638,32.906975,-124.021827,15.146,32.951,0.156,0.270
20050429,010355,1245668,32.908100,-124.022570,15.139,32.957,0.156,0.271
20050429,010425,1245698,32.909210,-124.023325,15.139,32.956,0.156,0.272
20050429,010455,1245728,32.910325,-124.024072,15.124,32.966,0.156,0.272
20050429,010525,1245758,32.911435,-124.024785,15.118,32.969,0.156,0.270
20050429,010555,1245788,32.912560,-124.025542,15.122,32.963,0.156,0.253
20050429,010625,1245818,32.913671,-124.026263,15.124,32.956,0.156,0.257
20050429,010655,1245848,32.914808,-124.027008,15.122,32.955,0.156,0.269
20050429,010726,1245879,32.915943,-124.027770,15.119,32.952,0.156,0.272
20050429,010755,1245908,32.917001,-124.028510,15.120,32.951,0.156,0.273
20050429,010825,1245938,32.918095,-124.029267,15.120,32.950,0.156,0.273
20050429,010855,1245968,32.919196,-124.029995,15.118,32.951,0.150,0.260
20050429,010926,1245999,32.920306,-124.030795,15.120,32.945,0.150,0.256
20050429,010955,1246028,32.921365,-124.031513,15.114,32.948,0.150,0.214
20050429,011026,1246059,32.922528,-124.032287,15.111,32.950,0.144,0.231
20050429,011056,1246089,32.923655,-124.033068,15.109,32.953,0.144,0.231
20050429,011126,1246119,32.924776,-124.033868,15.103,32.956,0.156,0.240
20050429,011156,1246149,32.925903,-124.034607,15.098,32.958,0.162,0.249
20050429,011226,1246179,32.927003,-124.035405,15.099,32.952,0.156,0.248
20050429,011255,1246208,32.928095,-124.036135,15.094,32.957,0.156,0.258
20050429,011326,1246239,32.929240,-124.036913,15.090,32.959,0.156,0.260
20050429,011356,1246269,32.930343,-124.037657,15.087,32.959,0.162,0.268
20050429,011426,1246299,32.931461,-124.038403,15.092,32.953,0.156,0.260
20050429,011456,1246329,32.932546,-124.039142,15.087,32.952,0.162,0.269
20050429,011526,1246359,32.933706,-124.039943,15.085,32.959,0.162,0.264
20050429,011556,1246389,32.934806,-124.040672,15.081,32.961,0.156,0.258
20050429,011626,1246419,32.935896,-124.041465,15.079,32.952,0.156,0.258
20050429,011656,1246449,32.937050,-124.042227,15.080,32.948,0.156,0.259
20050429,011726,1246479,32.938165,-124.042982,15.074,32.953,0.156,0.259
20050429,011756,1246509,32.939296,-124.043752,15.074,32.950,0.162,0.265
20050429,011827,1246540,32.940406,-124.044513,15.078,32.946,0.156,0.258
20050429,011856,1246569,32.941515,-124.045262,15.074,32.950,0.156,0.246
20050429,011926,1246599,32.942598,-124.046020,15.075,32.945,0.156,0.257
20050429,011956,1246629,32.943715,-124.046788,15.075,32.945,0.162,0.239
20050429,012026,1246659,32.944805,-124.047533,15.079,32.941,0.168,0.243
20050429,012057,1246690,32.945908,-124.048302,15.077,32.940,0.162,0.221
20050429,012126,1246719,32.947036,-124.049093,15.077,32.939,0.162,0.255
20050429,012156,1246749,32.948160,-124.049832,15.077,32.937,0.162,0.267
20050429,012226,1246779,32.949275,-124.050615,15.069,32.942,0.162,0.267
20050429,012256,1246809,32.950350,-124.051355,15.069,32.944,0.156,0.257
20050429,012326,1246839,32.951441,-124.052098,15.060,32.950,0.162,0.265
20050429,012356,1246869,32.952563,-124.052845,15.058,32.948,0.162,0.262
20050429,012426,1246899,32.953671,-124.053598,15.062,32.945,0.162,0.241
20050429,012457,1246930,32.954746,-124.054360,15.062,32.942,0.162,0.264
20050429,012526,1246959,32.955875,-124.055125,15.060,32.941,0.162,0.263
20050429,012556,1246989,32.956975,-124.055895,15.058,32.942,0.156,0.253
20050429,012626,1247019,32.958088,-124.056658,15.062,32.936,0.162,0.257
20050429,012656,1247049,32.959201,-124.057435,15.060,32.937,0.162,0.261
20050429,012726,1247079,32.960336,-124.058193,15.065,32.933,0.162,0.263
20050429,012756,1247109,32.961441,-124.058977,15.062,32.933,0.162,0.263
20050429,012826,1247139,32.962543,-124.059757,15.062,32.933,0.162,0.262
20050429,012856,1247169,32.963660,-124.060512,15.062,32.934,0.156,0.253
20050429,012926,1247199,32.964766,-124.061285,15.065,32.932,0.156,0.253
20050429,012956,1247229,32.965858,-124.062023,15.062,32.932,0.168,0.270
20050429,013026,1247259,32.966951,-124.062792,15.060,32.936,0.168,0.269
20050429,013056,1247289,32.968060,-124.063567,15.060,32.935,0.162,0.257
20050429,013126,1247319,32.969191,-124.064312,15.058,32.936,0.162,0.253
20050429,013156,1247349,32.970283,-124.065087,15.058,32.937,0.162,0.258
20050429,013226,1247379,32.971395,-124.065825,15.053,32.938,0.168,0.266
20050429,013257,1247410,32.972481,-124.066565,15.054,32.935,0.168,0.238
20050429,013326,1247439,32.973611,-124.067300,15.055,32.933,0.162,0.237
20050429,013356,1247469,32.974698,-124.068083,15.055,32.935,0.168,0.251
20050429,013426,1247499,32.975801,-124.068832,15.058,32.929,0.162,0.208
20050429,013456,1247529,32.976930,-124.069595,15.057,32.928,0.168,0.215
20050429,013526,1247559,32.978068,-124.070352,15.057,32.929,0.168,0.216
20050429,013556,1247589,32.979190,-124.071125,15.063,32.924,0.168,0.217
20050429,013626,1247619,32.980315,-124.071887,15.055,32.930,0.168,0.210
20050429,013657,1247650,32.981430,-124.072648,15.055,32.929,0.168,0.209
20050429,013726,1247679,32.982523,-124.073450,15.057,32.926,0.168,0.208
20050429,013756,1247709,32.983636,-124.074270,15.061,32.922,0.174,0.215
20050429,013826,1247739,32.984716,-124.075060,15.064,32.921,0.168,0.207
20050429,013856,1247769,32.985808,-124.075828,15.067,32.917,0.168,0.208
20050429,013926,1247799,32.986880,-124.076640,15.069,32.916,0.168,0.208
20050429,013956,1247829,32.987993,-124.077452,15.074,32.913,0.174,0.215
20050429,014026,1247859,32.989091,-124.078270,15.080,32.908,0.174,0.214
20050429,014057,1247890,32.990216,-124.079085,15.085,32.907,0.174,0.215
20050429,014126,1247919,32.991351,-124.079908,15.091,32.905,0.174,0.215
20050429,014156,1247949,32.992465,-124.080750,15.095,32.905,0.168,0.209
20050429,014227,1247980,32.993585,-124.081555,15.097,32.905,0.174,0.217
20050429,014256,1248009,32.994671,-124.082358,15.102,32.903,0.168,0.210
20050429,014326,1248039,32.995775,-124.083143,15.105,32.907,0.174,0.218
20050429,014356,1248069,32.996895,-124.083962,15.107,32.904,0.174,0.220
20050429,014426,1248099,32.998005,-124.084782,15.109,32.905,0.168,0.213
20050429,014456,1248129,32.999133,-124.085602,15.112,32.907,0.174,0.220
20050429,014527,1248160,33.000253,-124.086397,15.113,32.909,0.168,0.213
20050429,014556,1248189,33.001390,-124.087222,15.114,32.910,0.174,0.218
20050429,014626,1248219,33.002520,-124.088030,15.118,32.910,0.174,0.231
20050429,014656,1248249,33.003657,-124.088832,15.114,32.913,0.174,0.224
20050429,014726,1248279,33.004787,-124.089675,15.114,32.917,0.174,0.215
20050429,014756,1248309,33.005927,-124.090490,15.111,32.920,0.168,0.209
20050429,014827,1248340,33.007057,-124.091298,15.112,32.921,0.168,0.217
20050429,014856,1248369,33.008170,-124.092100,15.114,32.917,0.168,0.220
20050429,014927,1248400,33.009280,-124.092897,15.115,32.918,0.168,0.207
20050429,014957,1248430,33.010393,-124.093708,15.117,32.916,0.174,0.224
20050429,015026,1248459,33.011528,-124.094513,15.118,32.916,0.174,0.215
20050429,015056,1248489,33.012648,-124.095340,15.122,32.915,0.174,0.213
20050429,015127,1248520,33.013780,-124.096138,15.127,32.909,0.174,0.213
20050429,015156,1248549,33.014882,-124.096948,15.132,32.906,0.168,0.206
20050429,015226,1248579,33.015997,-124.097745,15.137,32.903,0.174,0.213
20050429,015256,1248609,33.017117,-124.098545,15.139,32.905,0.174,0.213
20050429,015326,1248639,33.018232,-124.099357,15.144,32.901,0.168,0.209
20050429,015356,1248669,33.019348,-124.100168,15.146,32.902,0.168,0.224
20050429,015426,1248699,33.020473,-124.100968,15.147,32.903,0.174,0.230
20050429,015456,1248729,33.021578,-124.101765,15.149,32.902,0.168,0.238
20050429,015526,1248759,33.022698,-124.102560,15.153,32.903,0.174,0.255
20050429,015557,1248790,33.023768,-124.103358,15.153,32.901,0.174,0.253
20050429,015626,1248819,33.024865,-124.104138,15.154,32.904,0.174,0.255
20050429,015657,1248850,33.025975,-124.104905,15.156,32.904,0.174,0.255
20050429,015726,1248879,33.027058,-124.105677,15.159,32.903,0.168,0.246
20050429,015756,1248909,33.028173,-124.106458,15.154,32.905,0.174,0.255
20050429,015826,1248939,33.029275,-124.107243,15.156,32.904,0.174,0.254
20050429,015856,1248969,33.030375,-124.108048,15.155,32.905,0.174,0.254
20050429,015926,1248999,33.031492,-124.108835,15.155,32.904,0.174,0.254
20050429,015956,1249029,33.032608,-124.109623,15.159,32.901,0.174,0.254
20050429,020026,1249059,33.033728,-124.110427,15.156,32.905,0.168,0.245
20050429,020056,1249089,33.034860,-124.111225,15.153,32.906,0.168,0.245
20050429,020126,1249119,33.035993,-124.112037,15.150,32.910,0.168,0.244
20050429,020156,1249149,33.037120,-124.112855,15.145,32.912,0.174,0.252
20050429,020226,1249179,33.038257,-124.113665,15.148,32.909,0.168,0.244
20050429,020256,1249209,33.039350,-124.114483,15.142,32.912,0.168,0.244
20050429,020326,1249239,33.040475,-124.115258,15.137,32.915,0.174,0.252
20050429,020356,1249269,33.041520,-124.116045,15.140,32.910,0.174,0.251
20050429,020426,1249299,33.042605,-124.116808,15.137,32.910,0.174,0.249
20050429,020456,1249329,33.043707,-124.117583,15.139,32.907,0.168,0.239
20050429,020526,1249359,33.044820,-124.118388,15.141,32.903,0.168,0.239
20050429,020556,1249389,33.045943,-124.119218,15.142,32.903,0.168,0.238
20050429,020626,1249419,33.047078,-124.120037,15.142,32.900,0.168,0.238
20050429,020656,1249449,33.048185,-124.120840,15.146,32.897,0.168,0.239
20050429,020726,1249479,33.049292,-124.121638,15.146,32.898,0.174,0.247
20050429,020757,1249510,33.050393,-124.122443,15.144,32.900,0.168,0.239
20050429,020826,1249539,33.051505,-124.123233,15.144,32.899,0.168,0.238
20050429,020856,1249569,33.052617,-124.124063,15.146,32.899,0.168,0.236
20050429,020926,1249599,33.053740,-124.124875,15.150,32.898,0.168,0.235
20050429,020956,1249629,33.054852,-124.125697,15.154,32.895,0.168,0.232
20050429,021027,1249660,33.055972,-124.126508,15.158,32.894,0.168,0.232
20050429,021056,1249689,33.057090,-124.127350,15.162,32.894,0.168,0.232
20050429,021126,1249719,33.058198,-124.128163,15.160,32.898,0.168,0.231
20050429,021157,1249750,33.059322,-124.128990,15.162,32.896,0.174,0.238
20050429,021226,1249779,33.060442,-124.129835,15.161,32.900,0.168,0.229
20050429,021256,1249809,33.061583,-124.130658,15.158,32.906,0.168,0.228
20050429,021326,1249839,33.062702,-124.131498,15.156,32.907,0.168,0.225
20050429,021356,1249869,33.063843,-124.132325,15.149,32.914,0.174,0.220
20050429,021426,1249899,33.064943,-124.133173,15.146,32.919,0.168,0.204
20050429,021456,1249929,33.066077,-124.133990,15.143,32.922,0.168,0.202
20050429,021526,1249959,33.067175,-124.134780,15.139,32.924,0.168,0.202
20050429,021556,1249989,33.068272,-124.135588,15.132,32.928,0.168,0.201
20050429,021626,1250019,33.069378,-124.136375,15.135,32.923,0.168,0.201
20050429,021656,1250049,33.070512,-124.137212,15.132,32.926,0.168,0.200
20050429,021726,1250079,33.071657,-124.138027,15.120,32.934,0.168,0.200
20050429,021756,1250109,33.072788,-124.138877,15.118,32.932,0.174,0.206
20050429,021826,1250139,33.073930,-124.139685,15.120,32.928,0.168,0.199
20050429,021856,1250169,33.075075,-124.140540,15.111,32.933,0.168,0.198
20050429,021926,1250199,33.076202,-124.141367,15.107,32.932,0.168,0.198
20050429,021956,1250229,33.077337,-124.142213,15.106,32.931,0.168,0.198
20050429,022027,1250260,33.078497,-124.143022,15.104,32.931,0.168,0.197
20050429,022056,1250289,33.079615,-124.143883,15.101,32.929,0.174,0.204
20050429,022127,1250320,33.080765,-124.144693,15.099,32.929,0.168,0.197
20050429,022156,1250349,33.081890,-124.145527,15.099,32.924,0.168,0.197
20050429,022226,1250379,33.082987,-124.146355,15.100,32.923,0.174,0.203
20050429,022256,1250409,33.084107,-124.147157,15.097,32.924,0.174,0.204
20050429,022326,1250439,33.085207,-124.147973,15.100,32.919,0.168,0.197
20050429,022357,1250470,33.086313,-124.148833,15.095,32.922,0.174,0.209
20050429,022426,1250499,33.087432,-124.149647,15.090,32.925,0.168,0.209
20050429,022456,1250529,33.088547,-124.150458,15.089,32.923,0.168,0.208
20050429,022526,1250559,33.089672,-124.151283,15.092,32.918,0.168,0.211
20050429,022557,1250590,33.090803,-124.152138,15.097,32.911,0.168,0.210
20050429,022626,1250619,33.091952,-124.152985,15.099,32.910,0.168,0.210
20050429,022656,1250649,33.093057,-124.153812,15.100,32.907,0.168,0.210
20050429,022726,1250679,33.094183,-124.154653,15.099,32.907,0.174,0.218
20050429,022757,1250710,33.095332,-124.155492,15.102,32.905,0.168,0.212
20050429,022826,1250739,33.096475,-124.156343,15.103,32.906,0.168,0.211
20050429,022856,1250769,33.097597,-124.157170,15.104,32.907,0.174,0.218
20050429,022926,1250799,33.098740,-124.157997,15.104,32.907,0.168,0.210
20050429,022956,1250829,33.099875,-124.158848,15.104,32.905,0.168,0.206
20050429,023026,1250859,33.100998,-124.159690,15.106,32.905,0.174,0.209
20050429,023057,1250890,33.102147,-124.160527,15.102,32.907,0.168,0.199
20050429,023126,1250919,33.103287,-124.161362,15.104,32.908,0.174,0.206
20050429,023156,1250949,33.104428,-124.162195,15.097,32.913,0.168,0.201
20050429,023227,1250980,33.105545,-124.163003,15.097,32.910,0.168,0.201
20050429,023256,1251009,33.106685,-124.163852,15.099,32.908,0.174,0.209
20050429,023326,1251039,33.107815,-124.164680,15.095,32.910,0.168,0.204
20050429,023356,1251069,33.108952,-124.165488,15.091,32.916,0.168,0.204
20050429,023426,1251099,33.110047,-124.166315,15.096,32.907,0.168,0.204
20050429,023457,1251130,33.111205,-124.167180,15.091,32.910,0.168,0.203
20050429,023527,1251160,33.112302,-124.167972,15.095,32.905,0.168,0.202
20050429,023556,1251189,33.113410,-124.168808,15.088,32.910,0.174,0.208
20050429,023626,1251219,33.114528,-124.169620,15.088,32.908,0.168,0.201
20050429,023656,1251249,33.115647,-124.170460,15.085,32.910,0.168,0.200
20050429,023727,1251280,33.116777,-124.171300,15.082,32.911,0.168,0.199
20050429,023756,1251309,33.117892,-124.172155,15.082,32.910,0.168,0.197
20050429,023827,1251340,33.119063,-124.173028,15.085,32.906,0.174,0.202
20050429,023856,1251369,33.120143,-124.173847,15.087,32.903,0.162,0.189
20050429,023927,1251400,33.121280,-124.174683,15.085,32.904,0.168,0.195
20050429,023956,1251429,33.122323,-124.175477,15.085,32.903,0.168,0.195
20050429,024026,1251459,33.123443,-124.176300,15.087,32.902,0.168,0.195
20050429,024056,1251489,33.124547,-124.177147,15.090,32.900,0.168,0.195
20050429,024126,1251519,33.125633,-124.178022,15.092,32.898,0.168,0.194
20050429,024157,1251550,33.126772,-124.178888,15.089,32.903,0.168,0.194
20050429,024226,1251579,33.127865,-124.179695,15.089,32.905,0.162,0.188
20050429,024257,1251610,33.128990,-124.180553,15.082,32.909,0.168,0.195
20050429,024327,1251641,33.130137,-124.181427,15.085,32.907,0.168,0.195
20050429,024357,1251670,33.131197,-124.182225,15.085,32.909,0.168,0.195